Wise, VA

6:43 AM EST on December 12, 2019 (GMT -0500)
Lonesome Pine

Weather History for KLNP - October, 2019

Change the Weather History Date:

Saturday, October 26, 2019

  Actual Average Record
Temperature  
Mean Temperature 60 °F -  
Max Temperature 66 °F 61 °F 78 °F (2010)
Min Temperature 53 °F 42 °F 26 °F (2013)
Degree Days  
Heating Degree Days 6    
Growing Degree Days 10 (Base 50)    
Moisture  
Dew Point 56 °F    
Average Humidity 84    
Maximum Humidity 100    
Minimum Humidity 64    
Precipitation  
Precipitation 0.27 in - - ()
Sea Level Pressure  
Sea Level Pressure 30.03 in    
Wind  
Wind Speed 8 mph ()    
Max Wind Speed 17 mph    
Max Gust Speed 28 mph    
Visibility 9.9 miles    
Events Rain    
Averages and records for this station are not official NWS values.
T = Trace of Precipitation, MM = Missing Value Source: Averaged Metar Reports

Daily Weather History Graph

Daily Weather History Graph

Search for Another Location

Airport or City:

Astronomy

Oct. 26, 2019 Rise Set
Actual Time 7:47 AM EDT 6:39 PM EDT
Civil Twilight 7:21 AM EDT 7:06 PM EDT
Nautical Twilight 6:50 AM EDT 7:36 PM EDT
Astronomical Twilight 6:20 AM EDT 8:06 PM EDT
Moon 5:46 AM EDT (10/26) 6:10 PM EDT (10/26)
Length of Visible Light 11h 44m
Length of Day
10h 51m
Waning Crescent, 3% of the Moon is Illuminated
Oct 26
Waning Crescent
Oct 27
New
Nov 4
First Quarter
Nov 12
Full
Nov 19
Last Quarter

Hourly Weather History & Observations

Time (EDT) Temp. Dew Point Humidity Pressure Visibility Wind Dir Wind Speed Gust Speed Precip Events Conditions
12:15 AM 53.6 °F 48.2 °F 82% 30.24 in 10.0 mi SSE 6.9 mph - 0.01 in Rain Light Rain
12:35 AM 53.6 °F 50.0 °F 88% 30.22 in 10.0 mi SSE 6.9 mph - 0.02 in Rain Rain
12:55 AM 53.6 °F 50.0 °F 88% 30.21 in 10.0 mi South 6.9 mph - 0.02 in Rain Rain
1:15 AM 53.6 °F 53.6 °F 100% 30.21 in 10.0 mi SE 5.8 mph - 0.01 in Rain Rain
1:35 AM 53.6 °F 53.6 °F 100% 30.20 in 10.0 mi SE 5.8 mph - 0.02 in Rain Rain
1:55 AM 53.6 °F 53.6 °F 100% 30.21 in 10.0 mi South 3.5 mph - 0.05 in Rain Light Rain
2:15 AM 55.4 °F 55.4 °F 100% 30.20 in 10.0 mi SSE 3.5 mph - 0.01 in Rain Rain
2:35 AM 55.4 °F 55.4 °F 100% 30.20 in 7.0 mi Calm Calm - 0.04 in Rain Rain
2:55 AM 55.4 °F 55.4 °F 100% 30.18 in 7.0 mi SE 3.5 mph - 0.08 in Rain Rain
3:15 AM 55.4 °F 55.4 °F 100% 30.17 in 10.0 mi Calm Calm - 0.01 in Rain Rain
3:35 AM 57.2 °F 57.2 °F 100% 30.17 in 10.0 mi Calm Calm - 0.01 in Rain Rain
3:55 AM 57.2 °F 57.2 °F 100% 30.16 in 10.0 mi Calm Calm - 0.02 in Rain Light Rain
4:15 AM 57.2 °F 57.2 °F 100% 30.15 in 10.0 mi SE 3.5 mph - N/A   Drizzle
4:35 AM 57.2 °F 57.2 °F 100% 30.14 in 10.0 mi ESE 4.6 mph - 0.02 in Rain Light Rain
4:55 AM 57.2 °F 57.2 °F 100% 30.14 in 10.0 mi SE 5.8 mph - 0.02 in   Drizzle
5:15 AM 57.2 °F 57.2 °F 100% 30.13 in 10.0 mi SE 3.5 mph - 0.01 in   Drizzle
5:55 AM 57.2 °F 57.2 °F 100% 30.12 in 10.0 mi SSE 4.6 mph - 0.02 in   Drizzle
6:15 AM 57.2 °F 57.2 °F 100% 30.12 in 7.0 mi SE 6.9 mph - 0.02 in Rain Rain
6:35 AM 59.0 °F 59.0 °F 100% 30.11 in 10.0 mi SSE 8.1 mph - 0.03 in Rain Light Rain
6:55 AM 59.0 °F 59.0 °F 100% 30.10 in 10.0 mi SSE 9.2 mph 17.3 mph 0.03 in   Light Drizzle
7:15 AM 59.0 °F 59.0 °F 100% 30.10 in 10.0 mi SSE 10.4 mph 17.3 mph N/A   Overcast
7:35 AM 59.0 °F 59.0 °F 100% 30.09 in 10.0 mi SSE 10.4 mph 18.4 mph N/A   Overcast
7:55 AM 59.0 °F 59.0 °F 100% 30.10 in 10.0 mi SSE 11.5 mph 18.4 mph 0.01 in   Overcast
8:15 AM 59.0 °F 59.0 °F 100% 30.09 in 10.0 mi SSE 9.2 mph - N/A   Mostly Cloudy
8:35 AM 59.0 °F 59.0 °F 100% 30.09 in 10.0 mi SSE 12.7 mph 20.7 mph N/A   Mostly Cloudy
8:55 AM 59.0 °F 57.2 °F 94% 30.09 in 10.0 mi SSE 12.7 mph 17.3 mph N/A   Scattered Clouds
9:15 AM 59.0 °F 57.2 °F 94% 30.08 in 10.0 mi SSE 11.5 mph 18.4 mph N/A   Scattered Clouds
9:35 AM 59.0 °F 57.2 °F 94% 30.09 in 10.0 mi SSE 9.2 mph 18.4 mph N/A   Clear
9:55 AM 59.0 °F 55.4 °F 88% 30.07 in 10.0 mi SSE 12.7 mph 18.4 mph N/A   Clear
10:15 AM 60.8 °F 55.4 °F 82% 30.07 in 10.0 mi SSE 9.2 mph 19.6 mph N/A   Clear
10:35 AM 60.8 °F 55.4 °F 82% 30.05 in 10.0 mi SSE 9.2 mph 17.3 mph N/A   Clear
10:55 AM 60.8 °F 55.4 °F 82% 30.07 in 10.0 mi SSE 11.5 mph 20.7 mph N/A   Clear
11:15 AM 60.8 °F 53.6 °F 77% 30.05 in 10.0 mi SSE 12.7 mph 20.7 mph N/A   Clear
11:35 AM 60.8 °F 55.4 °F 82% 30.06 in 10.0 mi SSE 9.2 mph - N/A   Clear
11:55 AM 62.6 °F 55.4 °F 77% 30.05 in 10.0 mi SSE 9.2 mph 18.4 mph N/A   Clear
12:15 PM 62.6 °F 55.4 °F 77% 30.05 in 10.0 mi SSE 10.4 mph 16.1 mph N/A   Clear
12:35 PM 64.4 °F 53.6 °F 68% 30.04 in 10.0 mi South 9.2 mph 18.4 mph N/A   Clear
12:55 PM 64.4 °F 53.6 °F 68% 30.03 in 10.0 mi South 11.5 mph 19.6 mph N/A   Clear
1:15 PM 64.4 °F 53.6 °F 68% 30.03 in 10.0 mi South 8.1 mph 19.6 mph N/A   Clear
1:35 PM 64.4 °F 53.6 °F 68% 30.02 in 10.0 mi SSE 6.9 mph - N/A   Clear
1:55 PM 64.4 °F 53.6 °F 68% 30.00 in 10.0 mi South 4.6 mph - N/A   Scattered Clouds
2:15 PM 64.4 °F 53.6 °F 68% 29.99 in 10.0 mi SSE 5.8 mph - N/A   Scattered Clouds
2:55 PM 66.2 °F 53.6 °F 64% 29.98 in 10.0 mi SSE 11.5 mph 26.5 mph N/A   Mostly Cloudy
3:15 PM 66.2 °F 53.6 °F 64% 29.97 in 10.0 mi SSE 17.3 mph 25.3 mph N/A   Overcast
3:35 PM 66.2 °F 53.6 °F 64% 29.96 in 10.0 mi SSE 17.3 mph 25.3 mph N/A   Mostly Cloudy
3:55 PM 64.4 °F 53.6 °F 68% 29.95 in 10.0 mi SSE 15.0 mph 27.6 mph N/A   Overcast
4:15 PM 64.4 °F 53.6 °F 68% 29.95 in 10.0 mi SE 13.8 mph 26.5 mph N/A   Overcast
4:35 PM 64.4 °F 53.6 °F 68% 29.95 in 10.0 mi SE 12.7 mph 21.9 mph N/A   Overcast
4:55 PM 64.4 °F 53.6 °F 68% 29.93 in 10.0 mi SSE 13.8 mph 19.6 mph N/A   Scattered Clouds
5:35 PM 64.4 °F 53.6 °F 68% 29.93 in 10.0 mi SSE 9.2 mph 19.6 mph N/A   Overcast
5:55 PM 64.4 °F 53.6 °F 68% 29.92 in 10.0 mi SE 12.7 mph 20.7 mph N/A   Overcast
6:15 PM 64.4 °F 53.6 °F 68% 29.92 in 10.0 mi SE 9.2 mph 23.0 mph N/A   Overcast
6:35 PM 64.4 °F 53.6 °F 68% 29.90 in 10.0 mi SSE 13.8 mph 24.2 mph N/A   Mostly Cloudy
6:55 PM 64.4 °F 53.6 °F 68% 29.90 in 10.0 mi SSE 11.5 mph 25.3 mph N/A   Mostly Cloudy
7:15 PM 64.4 °F 55.4 °F 73% 29.90 in 10.0 mi SSE 16.1 mph 25.3 mph N/A   Mostly Cloudy
7:35 PM 64.4 °F 55.4 °F 73% 29.88 in 10.0 mi SSE 13.8 mph 25.3 mph N/A   Mostly Cloudy
7:55 PM 64.4 °F 55.4 °F 73% 29.89 in 10.0 mi SSE 16.1 mph 24.2 mph N/A   Scattered Clouds
8:15 PM 64.4 °F 55.4 °F 73% 29.89 in 10.0 mi SSE 12.7 mph 20.7 mph N/A   Mostly Cloudy
8:35 PM 64.4 °F 55.4 °F 73% 29.89 in 10.0 mi SSE 11.5 mph 19.6 mph N/A   Light Drizzle
8:55 PM 64.4 °F 57.2 °F 77% 29.88 in 10.0 mi SE 13.8 mph 19.6 mph N/A Rain Light Rain
9:15 PM 62.6 °F 57.2 °F 82% 29.86 in 10.0 mi SE 11.5 mph 19.6 mph N/A   Light Drizzle
9:35 PM 62.6 °F 57.2 °F 82% 29.86 in 10.0 mi SE 11.5 mph 20.7 mph N/A   Mostly Cloudy
9:55 PM 62.6 °F 57.2 °F 82% 29.86 in 10.0 mi SE 12.7 mph 16.1 mph N/A   Light Drizzle
10:15 PM 62.6 °F 57.2 °F 82% 29.86 in 10.0 mi SSE 10.4 mph - N/A   Mostly Cloudy
10:35 PM 64.4 °F 57.2 °F 77% 29.84 in 10.0 mi SE 11.5 mph 21.9 mph N/A   Mostly Cloudy
10:55 PM 64.4 °F 57.2 °F 77% 29.83 in 10.0 mi SE 13.8 mph 18.4 mph N/A   Mostly Cloudy
11:15 PM 62.6 °F 59.0 °F 88% 29.83 in 10.0 mi SE 12.7 mph 19.6 mph 0.01 in Rain Light Rain
11:35 PM 62.6 °F 59.0 °F 88% 29.81 in 10.0 mi SE 12.7 mph 19.6 mph 0.01 in Rain Rain
11:55 PM 62.6 °F 59.0 °F 88% 29.81 in 10.0 mi SE 12.7 mph 18.4 mph 0.02 in   Mostly Cloudy